Temp_Advection
nan nan nan nan nan nan nan nan nan nan nan nan nan nan nan nan nan nan nan nan nan nan nan nan nan nan nan nan nan nan nan nan nan nan nan nan nan nan nan nan nan nan nan nan nan
nan -0 -0 -0 -0 -0 -0 -0 -0 -0 -0 -0 -1 -0 -0 -1 -1 -0 0 0 0 0 0 -0 -0 -0 -0 0 0 -0 -0 -1 -0 -0 -0 -1 -0 -1 -0 -1 -1 -1 -1 -0 nan
nan 0 0 -0 -0 -0 -0 -0 -0 -0 0 -0 -0 -0 -0 -1 -1 -0 -0 -0 -0 0 -0 -0 -0 -0 -0 -0 0 0 -0 -0 -0 -0 0 -0 -1 -1 -0 -0 -1 -1 -1 -1 nan
nan 0 -0 -0 -0 -0 -0 -0 -0 -0 -0 -0 -0 -0 -0 -1 -0 0 -0 -0 -0 0 -0 -0 -0 0 0 0 -0 0 -0 -0 -0 -0 -0 -0 -1 -0 -1 -0 -1 -1 -1 -1 nan
nan -0 -0 -0 -0 0 -0 -0 0 0 -0 -0 -0 -0 0 -1 -1 0 0 0 0 0 -0 -0 -0 0 0 -0 -0 0 -0 -0 -1 -1 -1 0 0 -0 -1 -1 -0 -1 -1 -1 nan
nan -0 -0 -0 -0 -0 -0 0 0 0 0 0 -0 -0 1 -1 -1 0 0 0 0 1 0 -0 -0 0 0 0 -0 -0 -0 -1 -0 -1 -0 -0 -1 -0 -0 -1 -1 -0 -1 -1 nan
nan -0 -0 -0 -0 -0 -0 -0 -0 0 0 1 1 -0 -2 -4 -0 0 0 0 0 0 0 -0 -0 0 0 0 -0 -0 -0 -0 -0 -0 -0 0 -0 -0 -1 -0 -1 -1 -1 -1 nan
nan 0 0 -0 -0 -0 -0 -0 -0 0 1 1 0 -0 -2 -2 -0 0 0 -0 1 0 -0 -0 0 -0 -0 0 -0 -0 -0 -0 -0 -0 -0 -0 0 -0 -0 -0 -1 -1 -1 -1 nan
nan 0 0 -0 -0 0 -0 -0 -0 1 1 0 0 -0 -2 -1 -0 -0 -0 0 1 0 -0 0 0 0 0 -0 -0 -0 0 -0 -0 -0 -0 -0 -0 -0 -1 -0 -0 -1 -1 -1 nan
nan 0 0 0 -0 0 0 0 0 0 0 -0 -0 -1 -3 -1 -0 -0 0 0 0 0 0 0 1 0 -0 0 -0 -0 -0 -0 -0 -0 -0 -0 -2 -1 -1 -0 -0 -0 -1 -1 nan
nan 0 0 0 0 0 0 0 0 0 -0 -1 -1 -1 -0 0 0 0 0 0 0 0 0 0 0 -0 -1 -0 -0 0 0 -0 -0 -0 -0 -0 -1 -1 -0 -0 -0 -1 -0 -0 nan
nan 0 0 0 0 0 0 -0 -0 0 -0 -1 0 -1 -1 0 -1 0 0 -0 0 0 0 -0 -0 -1 0 -0 0 0 0 -0 -0 -0 0 -0 -1 -1 -0 -0 -1 0 0 1 nan
nan 0 0 0 0 0 -0 -0 0 0 -0 -1 0 0 -1 0 -0 -1 -0 0 -0 -0 0 0 -0 -0 0 0 0 0 -0 -0 -0 -0 0 0 -1 -0 -1 -0 -1 -1 -1 1 nan
nan 0 0 0 0 0 -1 0 0 0 -0 -1 -0 -0 -0 -0 -1 -2 0 0 0 0 -0 -0 -0 0 0 -0 0 -0 -0 0 0 -0 -0 0 -0 -1 -1 -1 -2 -2 -3 -1 nan
nan 0 0 0 0 -1 0 0 -0 0 0 -0 -0 -0 -0 -0 0 0 1 0 -0 0 0 -0 -0 0 -0 -0 -0 0 0 0 0 -0 -0 0 0 -0 -1 -1 -1 -1 -1 -1 nan
nan 0 0 0 -0 -0 0 0 -0 -0 -1 0 -0 -0 -0 -0 -0 -0 0 0 0 0 0 -0 -0 -0 -0 0 0 0 -0 -0 -0 -0 -0 -0 -0 0 -0 -1 -1 -0 -2 -1 nan
nan 0 0 -0 -1 0 0 0 -0 -0 -0 -0 -0 -0 -0 -0 -0 -0 -0 0 0 -0 -0 -0 0 0 0 -0 -0 0 0 0 0 0 -0 -0 0 -0 -0 -0 -1 -2 -2 -1 nan
nan -0 -0 -0 0 0 0 0 -0 -0 -0 -0 -0 -0 -0 -0 -0 0 -0 -0 -0 -0 -0 0 -0 -0 0 0 -0 0 0 0 0 0 -0 -0 0 -0 -0 -0 -1 -1 -0 -0 nan
nan -0 0 0 0 0 0 -0 -0 -0 -0 0 -0 0 0 -0 0 0 -0 -0 -0 0 -0 -0 -0 -0 -0 0 -0 -0 -0 0 -0 -0 0 -0 -0 -0 -0 -0 -0 -0 -0 0 nan
nan -0 -0 -0 -0 -0 -0 -0 -0 -0 0 -0 0 0 -0 0 0 0 -0 -0 0 -0 -0 0 -0 -0 -0 -0 -0 -0 -0 -0 0 0 -0 -0 0 0 -0 -0 -0 -0 -0 -0 nan
nan -0 -0 0 0 1 -0 -0 -1 -0 0 0 0 -0 -0 -0 0 0 -0 -0 0 0 0 0 0 0 0 0 -0 -0 -0 -0 -0 0 -0 0 0 -0 -0 -0 -0 -0 -0 -0 nan
nan 0 0 0 0 -0 -0 -1 -1 -0 0 0 -0 0 0 0 0 0 -0 0 0 0 0 0 0 -0 -0 -0 0 0 -0 -0 -0 -0 0 -0 -0 -0 -0 -0 -0 -0 -1 -0 nan
nan 0 0 1 0 -0 -0 -0 -0 -0 0 0 0 -0 0 0 0 0 0 0 0 0 0 0 0 0 -0 -0 -0 -0 -0 -0 -0 -0 0 -0 -0 0 0 0 0 -0 -1 -0 nan
nan 0 0 0 0 -0 0 -0 0 0 -0 -0 -0 0 0 0 -0 0 0 0 0 0 0 -0 0 0 0 0 0 0 -0 0 -0 -0 -0 -0 0 -0 0 -0 -0 -0 -0 -0 nan
nan 0 0 0 -0 -0 0 -0 0 -0 -0 0 0 0 0 0 0 0 0 0 0 0 -0 0 0 0 -0 0 -0 -0 -1 -0 -0 -0 -0 -0 0 0 0 0 -0 -0 -0 -0 nan
nan 0 0 -0 0 0 -0 -0 -0 -1 0 0 -0 0 0 0 0 -0 -0 -0 0 0 0 0 0 0 -0 -0 -0 -0 -1 -0 0 1 1 -0 -0 -0 -1 -0 -0 -0 -0 -0 nan
nan nan nan nan nan nan nan nan nan nan nan nan nan nan nan nan nan nan nan nan nan nan nan nan nan nan nan nan nan nan nan nan nan nan nan nan nan nan nan nan nan nan nan nan nan
Wind_Speed
21 22 21 21 20 21 21 21 21 21 22 23 24 24 27 26 24 23 23 11 10 7 3 2 3 5 4 2 5 4 4 2 4 3 5 11 7 8 19 16 21 12 15 13 5
22 21 21 21 20 20 21 22 22 22 22 22 23 22 22 24 23 19 8 4 6 5 3 2 6 8 3 1 3 4 4 9 6 3 5 19 12 18 7 16 16 18 24 20 19
23 22 22 21 21 21 22 22 21 20 19 18 18 18 18 20 17 3 10 13 9 1 6 8 6 4 3 2 4 3 4 5 6 15 14 9 17 18 4 4 13 19 28 27 24
24 22 23 21 21 21 20 19 18 17 17 18 18 16 17 15 3 5 10 9 8 6 12 9 2 3 2 3 0 3 6 6 7 13 17 10 18 13 15 19 26 28 24 23 28
22 21 21 20 19 18 17 16 16 17 16 18 18 16 16 7 13 9 14 16 15 16 11 5 3 3 1 3 8 5 2 11 19 20 25 23 12 16 24 31 21 27 27 30 31
19 18 18 17 16 16 17 16 16 16 15 17 17 14 12 7 6 7 17 21 25 20 7 6 3 1 3 2 1 5 9 14 11 26 25 19 15 10 19 35 29 24 24 23 21
16 15 15 15 15 16 17 16 16 16 14 15 10 11 16 28 13 15 16 16 13 11 11 7 4 3 4 7 2 8 6 6 10 11 7 19 6 7 17 13 24 35 34 34 36
15 14 14 14 15 15 17 15 15 15 14 9 6 10 14 14 20 19 23 25 23 17 14 11 9 7 3 6 8 5 3 1 4 3 5 4 5 9 8 28 29 28 31 39 41
14 14 13 13 13 13 16 14 14 13 8 7 8 7 15 9 7 4 9 10 17 20 15 10 12 7 6 2 4 2 3 4 6 6 4 4 15 3 28 27 26 32 37 32 33
15 14 13 12 12 13 12 10 8 7 5 8 12 6 15 7 2 1 5 6 4 13 9 13 7 2 1 4 5 6 4 3 2 6 8 11 25 16 18 20 24 31 30 27 23
14 14 13 12 11 11 7 4 3 4 13 13 11 8 3 3 4 9 9 11 9 9 6 7 4 9 17 8 5 2 4 5 5 9 8 15 23 20 10 17 25 31 24 21 8
14 14 13 12 10 6 7 7 6 4 11 21 31 29 27 8 6 15 14 12 10 5 6 1 8 10 4 5 7 9 12 13 6 10 7 10 23 19 6 11 24 27 20 9 16
13 13 12 11 7 10 14 10 5 6 6 10 22 23 28 18 17 25 18 18 4 7 7 7 6 9 8 6 8 11 9 10 14 2 5 5 13 7 14 10 17 21 24 15 21
13 11 10 8 7 13 18 5 7 4 3 5 6 7 11 9 7 28 25 17 3 12 5 6 12 10 6 5 10 9 7 6 4 5 2 3 8 15 9 11 14 19 27 23 21
14 11 10 13 6 18 4 14 8 3 3 2 5 3 8 11 4 2 23 17 10 7 7 8 3 7 7 12 6 9 5 3 1 1 2 5 2 6 10 10 10 12 22 25 23
16 13 12 16 16 10 10 17 11 5 8 2 8 7 6 6 3 7 17 5 8 3 6 7 1 6 8 4 4 6 3 3 4 3 2 6 7 3 7 8 12 10 19 21 23
18 16 18 19 26 17 16 19 3 4 3 5 5 6 4 5 3 5 6 10 7 5 7 3 15 6 6 4 3 3 4 2 3 1 5 1 2 3 6 10 19 17 21 22 21
18 17 19 23 21 25 25 3 5 6 7 4 4 5 7 6 5 6 8 6 7 2 3 5 4 8 6 12 7 7 7 4 5 3 3 4 4 2 4 11 19 19 18 18 19
17 17 16 16 22 30 24 10 8 6 4 4 3 2 5 6 5 6 7 9 9 10 7 4 4 3 5 4 10 4 4 2 3 2 1 4 4 5 5 5 8 10 12 16 14
16 13 17 20 24 31 11 17 8 7 1 4 8 6 6 6 8 9 9 6 8 11 4 5 5 5 4 5 4 6 8 3 1 3 5 4 4 5 7 4 4 4 6 8 10
15 6 8 22 28 21 11 13 18 8 5 5 5 2 4 1 3 4 7 3 5 5 11 6 6 3 5 6 9 3 3 1 4 4 4 2 4 5 9 9 9 7 7 6 7
17 4 9 25 10 3 11 15 15 6 21 6 2 5 6 5 4 4 5 4 6 6 9 4 2 4 12 1 5 11 10 7 5 5 3 3 5 7 10 11 12 10 10 8 6
10 8 13 28 9 10 6 15 11 7 9 4 11 7 4 6 4 6 5 2 10 7 8 7 3 2 3 4 3 7 9 12 5 2 6 5 3 7 9 14 11 12 11 9 7
10 4 7 18 11 5 7 6 11 12 11 3 4 4 6 10 7 5 4 4 6 4 4 8 4 6 8 3 1 4 13 14 10 4 5 7 8 13 11 14 13 12 10 8 7
13 4 7 4 9 6 5 2 15 9 10 9 7 10 8 8 10 10 4 3 2 10 5 4 6 5 5 5 2 4 13 14 15 12 8 6 10 15 15 14 16 15 10 7 6
10 5 7 2 9 14 11 11 11 13 8 5 12 5 8 11 12 11 7 5 5 3 3 2 1 2 4 10 9 10 14 8 13 15 13 6 7 11 18 19 14 11 9 6 5
17 9 5 6 5 10 15 21 16 10 14 19 14 9 13 15 12 19 18 16 8 10 6 6 6 4 7 4 7 7 10 11 3 1 6 7 7 16 14 14 14 12 9 9 8
Wind_Direction
279 282 284 286 289 290 293 295 299 301 303 304 304 304 302 306 306 307 299 282 276 259 197 93 21 345 323 119 145 151 72 200 252 218 252 311 337 302 316 282 319 316 324 345 277
274 278 280 283 286 288 290 292 294 296 299 300 302 304 305 308 318 325 309 156 128 124 186 296 338 327 298 244 189 136 137 209 218 240 276 305 309 317 317 309 304 313 316 319 315
271 272 274 278 281 283 285 286 288 290 292 295 299 306 308 314 328 60 118 136 145 115 325 315 311 314 277 258 216 187 203 218 255 287 304 304 311 312 294 287 297 306 313 312 312
268 269 271 273 278 280 281 281 285 287 288 292 296 303 307 314 307 170 190 197 202 269 317 313 262 168 228 220 292 311 268 299 295 319 316 307 306 297 274 267 290 297 302 292 300
262 265 267 271 272 274 275 278 280 283 286 290 294 296 301 290 261 242 218 228 243 280 297 276 225 166 227 323 327 204 283 321 316 313 307 302 276 282 278 296 304 305 304 301 304
259 261 262 265 267 269 272 276 279 280 284 285 290 288 287 277 267 232 230 238 245 259 233 251 262 179 305 286 16 304 326 316 312 304 301 289 287 297 281 297 309 326 338 339 334
249 254 256 260 266 271 274 275 277 280 277 274 273 288 280 264 257 249 241 253 230 233 235 214 276 247 339 326 316 328 325 319 272 287 274 310 310 222 303 346 339 331 331 328 323
239 242 249 259 264 271 277 280 281 280 276 256 251 284 264 282 275 269 250 248 236 230 235 212 253 291 244 276 338 355 31 345 291 304 285 360 236 323 309 341 325 320 320 319 320
239 244 249 259 265 273 280 288 286 282 250 226 255 276 266 286 291 273 244 247 226 224 223 225 267 252 253 84 3 332 231 206 311 294 312 346 293 301 321 326 308 307 309 313 315
234 245 254 259 265 267 282 288 278 254 220 215 240 269 257 249 293 225 242 195 154 195 210 229 232 150 80 117 228 215 186 208 219 295 321 279 277 288 310 299 294 292 297 303 304
236 243 251 257 261 265 272 238 217 224 217 214 204 219 204 256 236 196 208 168 160 169 174 178 167 209 223 199 219 301 255 224 236 257 284 266 276 291 315 300 288 289 297 300 261
239 246 252 255 258 269 209 226 242 332 285 254 249 250 243 227 306 206 208 175 176 181 134 122 240 234 218 198 244 268 282 284 256 251 235 278 283 297 324 277 283 286 283 234 157
243 247 251 247 228 212 220 235 220 300 266 263 236 240 251 243 227 222 210 198 151 162 196 182 225 199 182 214 232 243 254 275 276 261 247 317 290 333 333 334 322 297 295 261 181
243 245 249 233 212 208 229 196 211 285 332 259 215 243 200 191 243 236 214 191 194 203 129 231 245 242 199 207 214 252 232 248 274 28 284 68 292 332 344 27 9 19 38 80 95
249 252 245 218 188 199 100 168 168 201 342 138 146 174 183 179 316 206 195 187 180 173 146 227 216 225 241 237 200 258 175 214 237 103 341 196 210 285 5 360 10 51 61 63 78
255 255 247 218 198 190 177 166 150 44 248 157 138 162 156 231 292 91 178 182 225 222 268 222 246 173 202 229 198 135 109 49 35 83 298 222 179 314 12 340 338 72 66 77 72
246 247 247 232 220 174 170 156 101 180 333 198 172 169 205 171 234 155 151 170 178 155 227 224 238 221 166 133 43 118 138 271 293 251 238 262 160 56 21 17 43 53 51 46 50
242 245 247 240 219 185 180 176 196 205 224 338 100 161 187 156 244 189 136 187 250 158 122 186 293 164 194 199 177 184 167 191 232 212 276 324 253 101 82 83 86 81 74 55 40
241 247 241 226 194 188 180 198 217 179 192 208 303 244 215 207 195 185 202 203 206 182 183 190 267 159 186 153 149 191 186 207 96 169 44 214 117 142 137 112 92 97 99 96 70
228 245 234 208 190 196 200 215 227 192 30 47 189 194 236 214 185 180 191 205 220 187 178 209 268 207 150 117 62 178 158 91 99 209 228 241 196 182 177 172 130 115 96 93 80
210 224 226 199 188 195 213 227 240 245 242 209 222 241 249 333 211 207 214 244 183 170 192 162 200 230 131 197 168 150 189 163 134 172 197 261 246 185 164 178 175 163 127 98 69
200 210 194 185 181 241 198 222 243 255 233 247 277 209 221 196 248 250 227 229 184 156 158 178 167 246 233 262 231 202 186 168 145 203 218 148 263 156 168 181 171 155 128 111 73
203 191 191 190 204 223 217 235 239 254 209 214 227 196 195 205 230 204 228 138 170 174 166 178 186 204 291 333 325 256 219 198 123 127 196 170 228 163 191 166 163 124 111 96 63
181 183 202 210 210 217 199 216 227 234 254 257 250 207 201 233 224 230 225 218 185 167 160 129 163 194 227 203 295 212 224 195 180 180 174 217 156 181 148 141 127 118 118 87 47
194 203 179 184 208 203 191 255 221 224 220 201 248 232 218 232 238 234 194 167 144 163 134 168 188 209 241 225 212 278 254 235 205 207 196 196 178 172 165 148 139 136 122 98 71
173 159 182 198 188 199 211 226 230 227 228 218 227 225 221 235 220 245 161 176 182 191 138 178 189 155 269 230 221 244 237 242 225 215 226 133 128 131 126 128 135 140 126 116 106
218 194 160 188 173 184 214 221 234 231 256 240 229 224 230 237 236 293 224 189 181 162 180 157 146 167 252 203 238 246 240 221 125 13 143 172 171 148 153 143 141 136 142 143 133
Height
1525 1525 1524 1525 1523 1523 1523 1521 1520 1519 1517 1516 1515 1514 1510 1507 1506 1504 1502 1502 1503 1503 1502 1503 1502 1501 1501 1502 1502 1504 1516 1523 1513 1508 1498 1494 1496 1495 1492 1489 1489 1487 1488 1488 1484
1521 1521 1521 1521 1520 1520 1520 1519 1518 1516 1514 1514 1512 1511 1508 1505 1502 1499 1497 1498 1501 1502 1502 1501 1500 1501 1500 1501 1502 1502 1515 1513 1501 1498 1496 1492 1495 1493 1489 1489 1485 1483 1482 1485 1486
1517 1517 1517 1517 1516 1517 1516 1516 1514 1513 1511 1510 1509 1509 1506 1503 1501 1498 1497 1499 1498 1501 1502 1501 1498 1500 1501 1500 1502 1502 1506 1500 1496 1495 1494 1493 1491 1490 1489 1486 1485 1483 1481 1480 1481
1512 1513 1513 1512 1512 1513 1512 1512 1511 1511 1509 1507 1507 1506 1505 1503 1505 1497 1497 1498 1500 1499 1500 1501 1498 1498 1500 1499 1500 1504 1500 1498 1496 1494 1492 1491 1488 1485 1484 1481 1481 1482 1482 1480 1477
1507 1508 1508 1508 1508 1509 1508 1509 1508 1508 1505 1505 1504 1504 1503 1501 1496 1495 1495 1495 1498 1498 1499 1500 1500 1497 1499 1499 1499 1500 1499 1498 1495 1491 1489 1487 1485 1482 1475 1474 1477 1478 1478 1477 1475
1503 1503 1504 1504 1505 1505 1505 1505 1505 1504 1503 1501 1500 1501 1501 1501 1492 1490 1489 1490 1495 1497 1498 1500 1500 1498 1498 1498 1499 1497 1496 1495 1493 1489 1485 1481 1479 1479 1473 1473 1472 1473 1472 1473 1472
1498 1500 1500 1501 1502 1502 1501 1502 1502 1502 1500 1498 1498 1499 1497 1487 1488 1488 1486 1486 1490 1493 1497 1499 1500 1499 1498 1497 1495 1495 1497 1494 1489 1486 1484 1478 1478 1472 1472 1472 1471 1469 1468 1468 1467
1495 1495 1496 1497 1498 1498 1498 1498 1498 1497 1497 1495 1497 1497 1490 1483 1481 1481 1482 1483 1485 1488 1495 1499 1499 1498 1497 1497 1496 1497 1498 1502 1488 1485 1481 1482 1476 1468 1471 1470 1469 1469 1468 1465 1461
1492 1492 1492 1493 1494 1494 1495 1494 1495 1494 1495 1493 1496 1498 1485 1479 1477 1477 1477 1478 1480 1486 1492 1498 1499 1497 1497 1499 1506 1502 1508 1503 1495 1484 1483 1484 1468 1468 1469 1471 1469 1465 1463 1463 1457
1487 1490 1489 1490 1490 1491 1493 1493 1491 1493 1493 1493 1495 1498 1480 1476 1476 1475 1476 1477 1481 1483 1490 1496 1498 1498 1497 1504 1512 1503 1506 1504 1499 1490 1485 1485 1466 1466 1471 1468 1467 1460 1460 1457 1452
1483 1485 1487 1486 1486 1487 1491 1493 1495 1493 1489 1484 1480 1478 1474 1476 1475 1474 1475 1477 1481 1483 1487 1490 1498 1498 1489 1493 1492 1492 1494 1500 1498 1491 1487 1479 1465 1459 1469 1466 1461 1454 1455 1452 1450
1479 1482 1483 1482 1483 1485 1488 1490 1490 1490 1483 1474 1475 1474 1472 1472 1476 1473 1475 1477 1478 1482 1483 1491 1492 1487 1488 1493 1495 1494 1494 1493 1492 1486 1486 1479 1461 1459 1464 1460 1455 1448 1450 1450 1449
1476 1478 1480 1479 1479 1483 1486 1487 1488 1489 1485 1468 1463 1465 1464 1468 1468 1467 1470 1472 1473 1479 1481 1487 1483 1478 1486 1489 1493 1491 1493 1491 1488 1487 1482 1481 1465 1455 1458 1455 1450 1448 1448 1449 1449
1473 1475 1475 1477 1480 1483 1480 1485 1487 1489 1492 1465 1459 1455 1458 1462 1461 1453 1463 1470 1473 1474 1479 1485 1480 1480 1483 1486 1488 1493 1486 1487 1486 1487 1496 1484 1486 1460 1460 1460 1458 1456 1453 1453 1457
1469 1472 1472 1473 1477 1478 1481 1481 1485 1490 1501 1453 1454 1453 1455 1459 1454 1451 1459 1466 1469 1471 1477 1479 1476 1479 1481 1478 1481 1483 1484 1484 1485 1489 1492 1489 1497 1472 1466 1467 1468 1466 1463 1463 1462
1464 1467 1468 1470 1472 1476 1479 1481 1484 1501 1488 1449 1450 1453 1458 1455 1452 1454 1461 1464 1467 1473 1472 1473 1471 1474 1475 1474 1476 1481 1484 1488 1492 1494 1506 1477 1483 1483 1479 1483 1473 1470 1469 1467 1466
1460 1462 1463 1466 1467 1473 1478 1481 1488 1497 1451 1447 1447 1449 1449 1452 1451 1450 1458 1463 1469 1479 1477 1469 1469 1468 1470 1476 1480 1481 1482 1489 1497 1500 1491 1473 1482 1483 1487 1486 1477 1479 1479 1477 1475
1455 1456 1456 1459 1465 1470 1474 1479 1482 1451 1453 1442 1439 1445 1448 1447 1449 1449 1456 1462 1460 1460 1469 1471 1470 1465 1463 1462 1471 1480 1480 1485 1486 1491 1488 1477 1485 1481 1488 1488 1482 1482 1482 1481 1479
1451 1450 1450 1453 1459 1466 1470 1470 1457 1448 1442 1442 1441 1445 1448 1443 1445 1449 1452 1452 1450 1454 1463 1467 1465 1457 1458 1458 1463 1478 1482 1476 1482 1486 1494 1480 1482 1487 1486 1487 1485 1482 1480 1477 1477
1445 1447 1445 1449 1453 1460 1463 1453 1445 1439 1439 1440 1445 1443 1444 1443 1446 1447 1447 1441 1445 1446 1448 1454 1462 1455 1456 1458 1462 1464 1468 1482 1486 1483 1480 1469 1468 1479 1482 1485 1485 1484 1483 1480 1476
1442 1444 1441 1446 1449 1452 1449 1446 1440 1438 1441 1444 1443 1443 1441 1440 1439 1442 1441 1438 1438 1442 1444 1450 1456 1458 1456 1455 1460 1466 1468 1469 1472 1480 1477 1470 1473 1471 1474 1479 1480 1482 1481 1481 1479
1437 1438 1437 1442 1444 1438 1440 1440 1438 1435 1440 1441 1440 1439 1441 1441 1441 1441 1439 1437 1437 1438 1445 1446 1454 1454 1452 1449 1449 1450 1449 1460 1476 1477 1468 1484 1473 1463 1469 1474 1477 1479 1481 1479 1479
1431 1432 1434 1436 1435 1435 1435 1433 1436 1435 1437 1437 1437 1437 1438 1441 1445 1437 1435 1436 1436 1438 1442 1445 1456 1461 1454 1455 1452 1455 1445 1445 1452 1457 1461 1472 1459 1463 1466 1471 1475 1478 1480 1480 1479
1426 1428 1429 1429 1430 1431 1433 1433 1433 1432 1434 1435 1432 1434 1436 1437 1438 1434 1436 1435 1434 1435 1437 1439 1450 1448 1446 1445 1447 1449 1443 1437 1443 1457 1453 1454 1452 1458 1463 1469 1475 1479 1481 1480 1479
1417 1417 1419 1423 1423 1426 1430 1429 1433 1430 1429 1430 1430 1431 1435 1437 1436 1435 1435 1435 1435 1434 1437 1441 1447 1451 1446 1445 1447 1447 1442 1439 1435 1438 1447 1444 1450 1450 1458 1466 1474 1479 1482 1481 1481
1408 1413 1417 1417 1419 1425 1427 1423 1425 1424 1425 1428 1430 1428 1430 1432 1432 1429 1429 1430 1432 1437 1438 1440 1447 1449 1447 1440 1437 1439 1435 1431 1427 1429 1435 1441 1450 1454 1461 1466 1473 1477 1480 1482 1482
1404 1408 1412 1411 1415 1419 1416 1415 1417 1424 1423 1422 1425 1427 1425 1423 1426 1427 1420 1419 1422 1429 1439 1442 1446 1449 1440 1440 1441 1438 1433 1426 1435 1438 1437 1443 1441 1453 1461 1466 1472 1476 1479 1481 1482